This is the latest recevied weather packets stored in our database for station/object KD7CIH. If no packets are shown the sender has not sent any weather packets the latest 10 day(s).
| Time | Temp. | Humidity | Pressure | Rain* | Wind** | Luminosity | Snow |
|---|---|---|---|---|---|---|---|
| 1787872805 | 27.78° C | 21% | 1017.5 hPa | 0 mm | - | - | - |
| 1787872505 | 27.78° C | 20% | 1017.5 hPa | 0 mm | - | - | - |
| 1787872206 | 27.78° C | 20% | 1017.4 hPa | 0 mm | - | - | - |
| 1787871906 | 27.78° C | 19% | 1017.2 hPa | 0 mm | - | - | - |
| 1787871604 | 28.33° C | 19% | 1017.2 hPa | 0 mm | - | - | - |
| 1787871296 | 28.33° C | 19% | 1017.2 hPa | 0 mm | - | - | - |
| 1787870991 | 28.89° C | 18% | 1017.1 hPa | 0 mm | - | - | - |
| 1787870811 | 29.44° C | 18% | 1017 hPa | 0 mm | - | - | - |
| 1787870378 | 30° C | 18% | 1017 hPa | 0 mm | - | - | - |
| 1787870075 | 30° C | 15% | 1017 hPa | 0 mm | - | - | - |
| 1787869904 | 30.56° C | 15% | 1017 hPa | 0 mm | - | - | - |
| 1787869475 | 30.56° C | 15% | 1017 hPa | 0 mm | - | - | - |
| 1787869174 | 30.56° C | 14% | 1017 hPa | 0 mm | - | - | - |
| 1787868875 | 31.67° C | 14% | 1017.1 hPa | 0 mm | - | - | - |
| 1787868576 | 31.67° C | 15% | 1017 hPa | 0 mm | - | - | - |
| 1787868274 | 31.67° C | 15% | 1017 hPa | 0 mm | - | - | - |
| 1787867974 | 32.22° C | 14% | 1017.1 hPa | 0 mm | - | - | - |
| 1787867674 | 31.67° C | 16% | 1017.1 hPa | 0 mm | - | - | - |
| 1787867376 | 31.11° C | 16% | 1017.1 hPa | 0 mm | - | - | - |
| 1787867202 | 31.11° C | 16% | 1017.4 hPa | 0 mm | - | - | - |
| 1787866774 | 30.56° C | 17% | 1017.5 hPa | 0 mm | - | - | - |
| 1787866475 | 30° C | 15% | 1017.5 hPa | 0 mm | - | - | - |
| 1787866173 | 30.56° C | 16% | 1017.7 hPa | 0 mm | - | - | - |
| 1787865873 | 30° C | 16% | 1017.7 hPa | 0 mm | - | - | - |
| 1787865574 | 30° C | 17% | 1017.7 hPa | 0 mm | - | - | - |
* Rain latest hour (hover to see other rain measurements)
** Current wind speed in m/s (hover to see current wind gust speed)